RH
81 94 96 94 92 92 93 93 92 92 89 90 89 88 88 88 89 89 89 89 87 84 80 81 81 80 80 81 84 88 89 90 89 87 85 82 78 82 82 87 84 80 85
79 93 96 94 93 92 93 93 92 91 89 90 90 90 89 89 90 89 89 88 86 82 80 81 79 79 80 81 87 88 88 88 89 89 86 80 80 77 82 89 90 88 88
85 92 94 95 93 92 92 92 92 91 90 91 92 91 90 90 90 90 89 88 86 82 80 79 78 78 80 84 89 89 89 88 87 85 83 86 86 82 84 90 90 88 86
81 92 94 96 94 93 93 92 92 91 91 91 92 92 91 90 90 90 90 89 85 83 80 78 77 78 80 83 83 85 85 86 86 86 85 72 70 80 82 86 86 84 85
81 87 93 97 95 93 93 93 93 92 92 93 93 92 91 90 89 90 90 89 84 81 77 78 78 78 80 80 80 80 80 80 81 75 71 76 81 77 79 83 86 87 89
81 86 98 98 96 94 92 92 93 94 94 94 94 92 91 90 89 90 91 89 85 82 76 75 76 82 81 79 81 82 83 85 84 70 70 68 76 79 78 85 89 91 92
83 94 98 98 97 94 92 93 94 94 94 94 94 94 92 91 90 91 92 91 88 86 84 82 85 84 83 82 81 83 86 87 76 74 73 77 81 82 79 84 90 92 92
86 93 97 98 97 95 94 94 96 95 95 95 95 95 93 93 92 92 92 91 91 91 90 88 87 86 87 87 85 82 91 86 74 80 82 87 87 84 79 84 89 90 90
83 90 97 97 97 97 97 97 97 96 95 95 95 96 95 95 93 92 93 92 92 91 90 89 90 90 88 85 83 86 90 86 85 79 79 92 84 84 78 81 87 88 88
87 91 98 97 92 94 98 99 98 97 97 96 96 96 96 95 94 93 94 94 93 93 92 90 90 88 86 84 84 89 89 85 95 93 94 89 83 81 78 82 86 88 88
89 95 97 98 91 87 87 95 98 97 97 97 96 96 97 97 96 95 96 96 95 95 92 90 87 86 88 86 86 89 86 89 94 98 98 88 83 78 79 86 89 90 92
89 96 95 98 95 89 83 88 96 94 97 96 96 97 98 98 98 94 97 97 96 95 92 89 87 88 90 90 90 86 87 91 97 99 98 93 84 80 84 89 90 90 88
79 83 89 94 97 97 90 88 92 93 96 97 98 98 98 96 99 99 100 99 99 95 98 94 94 94 92 91 88 86 82 93 99 99 96 92 86 79 84 86 86 88 88
85 80 83 84 94 93 94 88 88 91 94 96 96 97 98 99 99 99 99 100 99 99 98 97 98 94 91 85 83 78 92 96 99 99 97 94 88 83 81 84 84 87 88
85 82 83 83 85 86 96 97 92 91 97 96 97 97 96 98 98 98 99 99 99 99 98 98 95 89 87 81 75 90 95 98 99 99 99 95 93 86 82 84 85 86 85
70 82 81 83 81 79 86 92 92 93 94 94 93 94 95 93 98 98 99 99 99 98 97 94 92 91 88 77 78 92 97 98 96 97 93 97 94 88 84 82 83 82 82
55 75 83 83 80 78 80 84 85 87 89 89 90 94 92 93 96 96 98 98 97 94 96 96 94 93 89 75 76 96 96 95 92 88 88 87 88 90 86 80 75 75 74
48 71 79 76 81 80 75 82 78 82 85 84 86 93 93 88 95 97 96 94 91 92 92 95 95 94 87 81 79 98 97 92 88 84 80 79 82 80 82 80 76 69 67
42 62 77 78 83 81 75 86 82 89 87 87 90 93 92 90 91 95 94 94 92 94 93 90 92 89 74 76 76 99 98 93 89 79 79 81 83 81 79 84 83 77 71
40 57 71 78 83 80 84 96 97 98 98 98 96 93 94 90 91 96 98 97 95 94 96 92 83 81 72 71 66 93 99 96 89 86 80 75 77 74 78 82 81 82 76
73 65 68 82 86 83 86 92 97 97 99 99 99 97 96 94 96 95 97 98 97 94 88 82 87 73 78 80 85 96 89 96 91 87 80 80 75 74 78 77 78 78 80
87 76 69 77 84 81 80 93 97 100 100 99 99 99 98 97 98 97 97 97 96 96 95 93 90 92 92 89 86 90 94 92 94 90 85 82 75 72 75 72 75 76 79
98 90 81 81 82 83 97 99 99 99 99 99 99 100 98 98 98 98 98 98 98 98 98 98 95 91 97 99 97 96 99 98 98 98 94 79 76 74 74 72 72 72 76
99 98 92 93 92 96 95 96 94 96 99 99 99 99 99 96 98 98 98 98 98 98 98 98 97 98 98 96 98 97 98 97 99 99 98 98 89 71 73 70 75 73 72
98 99 99 97 97 97 96 92 97 98 100 100 99 99 99 99 98 97 97 97 98 98 98 97 98 98 98 99 98 99 96 97 97 97 99 100 93 85 74 73 77 80 78
98 98 99 98 99 98 97 96 96 97 99 99 100 99 99 99 99 98 97 97 97 97 96 97 97 96 98 97 94 97 96 97 99 98 98 97 95 98 91 86 87 87 86
Wind_Speed
6 9 12 12 13 13 13 14 15 15 15 17 17 17 17 18 18 18 17 16 16 15 15 14 13 12 13 14 14 13 13 12 12 13 13 14 14 15 15 13 12 10 13
15 11 14 15 15 15 15 15 15 15 16 16 16 15 15 17 17 16 16 15 15 16 15 15 14 13 12 12 12 12 11 11 10 11 12 14 12 13 15 13 12 10 12
16 13 13 15 16 16 16 16 15 16 16 16 16 15 14 15 16 16 15 14 14 14 14 14 14 13 12 12 11 11 10 10 10 10 10 5 6 16 15 13 11 11 12
17 13 12 16 17 17 17 16 17 16 17 16 16 16 14 14 15 15 14 14 14 14 14 14 13 12 10 10 10 10 9 9 8 5 4 3 6 12 14 13 13 12 11
13 12 11 16 18 17 17 16 17 17 17 16 14 16 15 14 14 15 14 13 14 14 14 14 13 11 8 9 9 9 9 8 5 4 2 2 4 8 13 12 11 11 9
10 10 12 15 17 18 17 16 17 18 17 16 15 14 15 14 14 13 13 13 13 13 14 13 12 9 9 8 7 7 8 6 2 2 4 8 6 10 14 11 9 11 9
10 9 12 12 15 17 17 16 16 17 17 17 15 14 14 14 12 11 11 10 11 11 11 10 9 8 7 6 7 6 8 4 2 3 0 6 6 11 14 14 12 10 9
14 11 10 14 13 14 16 14 13 15 16 16 15 14 14 13 11 10 10 10 9 8 7 6 6 5 3 1 1 7 7 4 2 2 5 6 10 11 14 15 11 10 9
11 12 10 11 12 11 10 11 11 12 14 16 15 14 13 12 11 11 10 11 10 8 6 5 3 2 2 5 8 11 7 5 3 1 4 5 15 13 13 14 13 11 9
10 10 12 10 12 11 8 9 11 12 12 13 14 13 13 13 12 11 11 10 11 11 9 7 4 2 1 4 6 9 6 8 5 4 3 3 9 11 11 13 11 10 9
7 9 10 12 12 13 11 8 11 11 11 12 11 11 10 5 7 8 8 11 11 10 10 7 5 3 2 5 6 7 3 2 4 3 2 6 8 11 11 10 11 11 13
12 11 11 12 14 13 10 11 8 8 7 7 7 8 5 6 6 7 7 11 10 9 8 7 6 5 2 2 2 5 2 4 3 3 3 7 7 11 15 16 16 17 16
17 11 12 13 13 15 12 9 6 5 6 5 9 9 7 6 4 3 3 3 3 6 3 5 4 3 3 2 2 3 3 4 3 3 4 9 12 13 15 15 16 17 17
16 16 14 14 13 13 9 11 9 8 7 7 8 10 7 5 6 5 4 4 4 3 5 4 2 3 3 4 4 5 5 5 3 2 4 8 10 13 15 16 16 18 20
14 14 14 13 13 13 12 9 11 10 8 8 8 9 7 6 7 6 5 5 5 4 4 4 4 4 4 3 2 7 6 6 6 3 3 7 8 15 19 20 20 19 18
17 17 16 16 15 13 10 13 10 10 9 8 8 9 9 7 5 6 6 6 5 6 5 5 5 5 4 4 5 6 7 6 6 7 5 6 12 14 17 20 18 17 16
18 18 19 19 16 17 13 11 9 10 11 10 9 11 11 7 6 9 7 6 6 6 6 4 3 3 3 3 6 7 7 7 7 8 7 8 9 14 15 17 17 14 12
13 19 19 15 17 16 14 11 9 9 9 10 9 9 13 11 9 7 8 9 8 7 7 6 4 4 4 4 5 5 6 7 8 8 9 8 7 7 9 14 19 12 11
13 18 18 18 18 18 14 10 8 7 8 7 8 9 13 12 12 9 7 7 8 7 6 8 3 4 6 4 5 6 5 7 7 7 10 10 9 7 7 16 14 13 10
10 17 19 16 16 15 9 6 4 5 4 6 8 9 12 11 12 7 4 5 7 7 5 5 10 3 6 7 6 6 5 5 6 6 8 8 10 9 8 8 7 9 12
7 12 16 16 15 13 10 10 8 9 5 2 3 6 9 9 8 10 7 6 5 7 10 12 5 10 1 5 5 4 4 2 6 6 8 8 11 10 9 7 5 5 7
4 7 12 13 14 13 10 5 4 4 3 3 2 3 3 6 6 6 7 7 7 4 3 2 2 3 3 3 6 3 2 2 2 4 4 6 10 8 10 9 9 7 5
8 4 7 10 14 11 9 8 5 6 4 3 1 2 2 4 5 6 6 6 6 5 4 4 3 5 4 3 5 3 4 4 4 4 2 5 9 8 7 9 9 8 7
6 4 7 7 8 7 10 8 11 8 6 3 3 3 3 4 5 7 8 7 7 6 7 7 4 5 6 7 6 5 6 4 0 3 3 4 3 5 9 6 7 7 9
7 7 5 6 5 5 4 7 7 6 3 3 4 6 4 4 4 6 9 8 8 7 7 9 8 7 4 2 5 3 4 3 4 4 3 3 2 2 4 6 5 7 7
6 7 8 8 7 7 6 5 3 7 7 7 5 5 4 3 3 4 5 8 8 8 9 8 8 9 8 8 7 8 6 5 4 4 3 3 3 3 4 6 5 5 6
Wind_Direction
174 162 151 146 137 129 124 121 119 118 114 108 105 103 105 106 104 103 100 97 97 97 97 96 91 86 91 95 97 93 94 95 99 102 98 95 102 104 103 94 88 91 90
140 160 156 152 145 137 133 130 128 123 119 115 112 111 110 109 107 106 106 105 105 105 105 101 99 94 90 91 87 86 87 92 96 94 92 88 105 122 104 94 98 94 94
144 155 160 153 148 143 140 139 135 132 128 124 120 119 115 116 116 115 113 113 112 111 110 105 101 93 88 83 80 82 80 84 85 84 81 71 82 111 110 104 100 96 96
146 152 161 154 151 149 148 147 143 140 134 131 130 126 125 126 124 123 123 124 124 122 118 112 107 101 90 84 81 78 71 63 57 30 54 70 105 115 116 114 110 106 100
140 148 157 153 150 154 152 153 148 146 140 138 138 136 136 136 135 134 133 132 130 128 128 125 123 120 112 106 103 101 93 73 36 346 292 151 128 131 121 117 117 108 105
141 145 151 151 154 155 160 160 155 150 145 143 144 145 141 144 144 144 138 138 137 136 136 136 137 134 135 128 118 120 105 99 141 275 266 209 160 155 132 121 110 112 111
140 143 151 152 157 161 163 164 161 153 149 149 150 150 149 150 149 147 139 138 137 137 141 143 142 145 153 154 146 128 85 90 65 317 32 118 128 160 138 130 127 125 124
144 149 156 156 159 162 164 163 162 156 155 151 153 154 154 150 149 149 143 135 130 127 127 133 140 144 141 235 284 65 73 54 71 35 122 128 146 165 140 133 131 132 129
144 147 157 159 160 154 157 156 157 159 160 156 157 156 156 152 154 156 152 144 141 135 133 133 128 78 10 339 333 46 35 346 10 73 136 147 165 158 152 140 137 134 128
144 154 156 160 164 160 165 153 158 164 164 161 160 160 155 158 162 162 161 159 154 151 154 155 160 160 271 300 310 51 13 19 61 97 110 136 147 152 152 137 130 129 129
148 158 158 157 167 169 174 170 164 165 166 166 161 158 151 154 162 165 166 164 165 161 162 164 170 185 245 282 297 61 55 81 73 54 54 146 161 171 148 128 119 111 101
174 174 170 163 165 166 170 175 170 172 172 173 167 164 157 159 163 167 168 169 165 162 162 166 182 189 199 282 330 67 44 107 98 102 86 85 126 129 118 112 110 110 105
181 173 179 172 168 165 168 167 174 174 171 174 171 168 166 163 166 165 151 169 153 160 159 169 188 199 199 214 276 102 146 98 80 67 87 101 106 122 120 116 115 115 115
180 185 179 178 172 176 159 169 170 177 178 179 182 176 172 172 175 168 170 166 162 168 178 181 186 186 211 251 255 135 116 113 101 82 94 99 120 133 124 118 115 109 103
183 184 187 177 177 178 166 170 171 179 180 179 180 185 179 181 180 167 172 169 179 174 180 185 188 185 199 235 103 121 112 108 103 88 72 89 122 120 116 110 107 104 101
188 187 179 184 177 180 185 178 175 173 174 176 180 187 186 186 166 178 179 184 183 187 185 182 186 179 185 164 129 115 112 102 98 96 84 70 75 102 112 108 104 100 100
193 182 184 180 177 180 181 183 181 178 173 180 185 185 190 184 188 177 178 187 196 190 187 170 176 148 143 161 126 124 120 122 121 116 109 100 87 78 93 101 99 93 97
177 178 181 179 178 178 181 183 180 183 183 185 184 182 188 194 184 183 185 190 193 192 184 177 165 154 158 172 136 138 133 130 128 120 114 105 99 97 88 106 109 108 108
177 175 177 177 180 178 181 176 178 174 190 185 182 185 191 192 193 181 199 196 185 183 184 173 143 152 164 178 126 127 131 129 134 125 117 109 97 97 94 73 70 101 99
178 172 172 177 177 172 162 136 134 154 172 180 191 194 187 196 195 179 195 195 176 177 163 160 157 157 164 168 128 123 131 143 134 134 124 115 112 97 91 80 75 62 83
123 150 169 167 175 163 164 165 164 179 166 155 169 181 185 190 186 194 170 162 163 196 189 168 151 153 134 141 119 83 50 85 145 147 141 140 127 124 115 103 92 81 72
74 146 163 168 169 173 170 159 136 122 75 96 80 75 118 146 152 162 158 168 167 145 163 200 67 140 108 250 141 113 123 81 43 137 145 137 132 134 132 123 116 103 96
51 87 166 173 170 167 133 113 90 83 74 94 117 102 66 103 113 129 120 122 112 117 116 106 128 136 133 95 57 145 152 188 124 10 36 147 145 143 133 138 128 121 105
40 64 138 146 155 144 151 143 162 171 162 174 145 119 113 85 112 115 116 111 110 116 124 115 116 129 121 187 121 114 106 133 15 123 43 44 71 153 152 151 134 122 116
29 38 43 90 95 119 148 159 151 141 103 92 107 113 94 86 98 126 127 127 131 126 127 130 130 130 106 117 113 108 38 112 127 150 157 143 96 78 146 119 117 114 105
49 47 39 71 47 48 51 60 133 148 133 135 144 152 140 107 89 96 126 133 131 133 131 136 133 143 159 154 138 141 173 169 160 143 111 124 144 73 93 109 125 126 118